QPF
0.00 0.00 0.00 0.00 0.00 0.00 0.00 0.00 0.00 0.00 0.00 0.00 0.00 0.00 0.00 0.00 0.00 0.00 0.00 0.00 0.00 0.00 0.00 0.01 0.00 0.00 0.00 0.00 0.00 0.00 0.00 0.00 0.00 0.01 0.00 0.00 0.00 0.00 0.00 0.00 0.01 0.01 0.00 0.00 0.00 0.00 0.00 0.00 0.00
0.00 0.00 0.00 0.00 0.00 0.00 0.00 0.00 0.00 0.00 0.00 0.00 0.00 0.00 0.00 0.00 0.00 0.00 0.00 0.00 0.00 0.00 0.00 0.00 0.00 0.00 0.00 0.00 0.01 0.00 0.00 0.00 0.01 0.00 0.00 0.00 0.00 0.00 0.00 0.01 0.00 0.00 0.00 0.00 0.00 0.00 0.00 0.00 0.00
0.00 0.00 0.00 0.00 0.00 0.00 0.00 0.00 0.00 0.00 0.00 0.00 0.00 0.00 0.00 0.00 0.00 0.00 0.00 0.00 0.00 0.00 0.00 0.00 0.00 0.00 0.00 0.01 0.00 0.00 0.00 0.01 0.00 0.00 0.00 0.01 0.01 0.00 0.00 0.00 0.00 0.00 0.00 0.00 0.00 0.00 0.00 0.00 0.00
0.00 0.00 0.00 0.00 0.00 0.00 0.00 0.00 0.00 0.00 0.00 0.00 0.00 0.00 0.00 0.00 0.00 0.00 0.00 0.00 0.00 0.00 0.00 0.00 0.00 0.00 0.00 0.00 0.00 0.00 0.00 0.00 0.01 0.01 0.00 0.01 0.00 0.00 0.00 0.00 0.00 0.00 0.00 0.00 0.00 0.00 0.00 0.00 0.00
0.00 0.00 0.00 0.00 0.00 0.00 0.00 0.00 0.00 0.00 0.00 0.00 0.00 0.00 0.00 0.00 0.00 0.00 0.00 0.00 0.00 0.00 0.00 0.00 0.00 0.00 0.00 0.00 0.00 0.00 0.00 0.00 0.00 0.00 0.00 0.00 0.00 0.00 0.00 0.00 0.00 0.00 0.00 0.00 0.00 0.00 0.00 0.00 0.00
0.00 0.00 0.00 0.00 0.00 0.00 0.00 0.00 0.00 0.00 0.00 0.00 0.00 0.00 0.00 0.00 0.00 0.00 0.00 0.00 0.00 0.00 0.00 0.00 0.00 0.00 0.00 0.00 0.00 0.01 0.00 0.01 0.00 0.00 0.00 0.00 0.00 0.00 0.00 0.00 0.00 0.00 0.00 0.00 0.00 0.00 0.00 0.00 0.00
0.00 0.00 0.00 0.00 0.00 0.00 0.00 0.00 0.00 0.00 0.00 0.00 0.00 0.00 0.00 0.00 0.00 0.00 0.00 0.00 0.00 0.00 0.00 0.00 0.00 0.00 0.00 0.00 0.00 0.00 0.01 0.01 0.00 0.00 0.00 0.00 0.00 0.00 0.00 0.00 0.00 0.00 0.00 0.00 0.00 0.00 0.00 0.00 0.00
0.00 0.00 0.00 0.00 0.00 0.00 0.00 0.00 0.00 0.00 0.00 0.00 0.00 0.00 0.00 0.00 0.00 0.00 0.00 0.00 0.00 0.00 0.00 0.00 0.00 0.00 0.00 0.00 0.00 0.00 0.00 0.00 0.00 0.00 0.00 0.00 0.00 0.00 0.00 0.00 0.00 0.00 0.00 0.00 0.00 0.00 0.00 0.00 0.00
0.00 0.00 0.00 0.00 0.00 0.00 0.00 0.00 0.00 0.00 0.00 0.00 0.00 0.00 0.00 0.00 0.00 0.00 0.00 0.00 0.00 0.00 0.00 0.00 0.00 0.00 0.00 0.00 0.00 0.00 0.00 0.00 0.00 0.00 0.00 0.00 0.00 0.00 0.00 0.00 0.00 0.00 0.00 0.00 0.00 0.00 0.00 0.00 0.00
0.00 0.00 0.00 0.00 0.00 0.00 0.00 0.00 0.00 0.00 0.00 0.00 0.00 0.00 0.00 0.00 0.00 0.00 0.00 0.00 0.00 0.00 0.00 0.00 0.00 0.00 0.00 0.00 0.00 0.00 0.00 0.00 0.00 0.00 0.00 0.00 0.00 0.00 0.00 0.00 0.00 0.00 0.00 0.00 0.00 0.00 0.00 0.00 0.00
0.00 0.00 0.00 0.00 0.00 0.00 0.00 0.00 0.00 0.00 0.00 0.00 0.00 0.00 0.00 0.00 0.00 0.00 0.00 0.00 0.00 0.00 0.00 0.00 0.00 0.00 0.00 0.00 0.00 0.00 0.00 0.00 0.00 0.00 0.00 0.00 0.00 0.00 0.00 0.00 0.00 0.00 0.00 0.00 0.00 0.00 0.00 0.00 0.00
0.00 0.00 0.00 0.00 0.00 0.00 0.00 0.00 0.00 0.00 0.00 0.00 0.00 0.00 0.00 0.00 0.00 0.00 0.00 0.00 0.00 0.00 0.00 0.00 0.00 0.00 0.00 0.00 0.00 0.00 0.00 0.00 0.00 0.00 0.00 0.00 0.00 0.00 0.00 0.00 0.00 0.00 0.00 0.00 0.00 0.00 0.00 0.00 0.00
0.00 0.00 0.00 0.00 0.00 0.00 0.00 0.00 0.00 0.00 0.00 0.00 0.00 0.00 0.00 0.00 0.00 0.00 0.00 0.00 0.00 0.00 0.00 0.00 0.00 0.00 0.00 0.00 0.00 0.00 0.00 0.00 0.00 0.00 0.00 0.00 0.00 0.00 0.00 0.00 0.00 0.00 0.00 0.00 0.00 0.00 0.00 0.00 0.00
0.00 0.00 0.00 0.00 0.00 0.00 0.00 0.00 0.00 0.00 0.00 0.00 0.00 0.00 0.00 0.00 0.00 0.00 0.00 0.00 0.00 0.00 0.00 0.00 0.00 0.00 0.00 0.00 0.00 0.00 0.00 0.00 0.00 0.00 0.00 0.00 0.00 0.00 0.00 0.00 0.00 0.00 0.00 0.00 0.00 0.00 0.00 0.00 0.00
0.00 0.00 0.00 0.00 0.00 0.00 0.00 0.00 0.00 0.00 0.00 0.00 0.00 0.00 0.00 0.00 0.00 0.00 0.00 0.00 0.00 0.00 0.00 0.00 0.00 0.00 0.00 0.00 0.00 0.00 0.00 0.00 0.00 0.00 0.00 0.00 0.00 0.00 0.00 0.00 0.00 0.00 0.00 0.00 0.00 0.00 0.00 0.00 0.00
0.00 0.00 0.00 0.00 0.00 0.00 0.00 0.00 0.00 0.00 0.00 0.00 0.00 0.00 0.00 0.00 0.00 0.00 0.00 0.00 0.00 0.00 0.00 0.00 0.00 0.00 0.00 0.00 0.00 0.00 0.00 0.00 0.00 0.00 0.00 0.00 0.00 0.00 0.00 0.00 0.00 0.00 0.00 0.00 0.00 0.00 0.00 0.00 0.00
0.00 0.00 0.00 0.00 0.00 0.00 0.00 0.00 0.00 0.00 0.00 0.00 0.00 0.00 0.00 0.00 0.00 0.00 0.00 0.00 0.00 0.00 0.00 0.00 0.00 0.00 0.00 0.00 0.00 0.00 0.00 0.00 0.00 0.00 0.00 0.00 0.00 0.00 0.00 0.00 0.00 0.00 0.00 0.00 0.00 0.00 0.00 0.00 0.00
0.00 0.00 0.00 0.00 0.00 0.00 0.00 0.00 0.00 0.00 0.00 0.00 0.00 0.00 0.00 0.00 0.00 0.00 0.00 0.00 0.00 0.00 0.00 0.00 0.00 0.00 0.00 0.00 0.00 0.00 0.00 0.00 0.00 0.00 0.00 0.00 0.00 0.00 0.00 0.00 0.00 0.00 0.00 0.00 0.00 0.00 0.00 0.00 0.00
0.00 0.00 0.00 0.00 0.00 0.00 0.00 0.00 0.00 0.00 0.00 0.00 0.00 0.00 0.00 0.00 0.00 0.00 0.00 0.00 0.00 0.00 0.00 0.00 0.00 0.00 0.00 0.00 0.00 0.00 0.00 0.00 0.00 0.00 0.00 0.00 0.00 0.00 0.00 0.00 0.00 0.00 0.00 0.00 0.00 0.00 0.00 0.00 0.00
0.00 0.00 0.00 0.00 0.00 0.00 0.00 0.00 0.00 0.00 0.00 0.00 0.00 0.00 0.00 0.00 0.00 0.00 0.00 0.00 0.00 0.00 0.00 0.00 0.00 0.00 0.00 0.00 0.00 0.00 0.00 0.00 0.00 0.00 0.00 0.00 0.00 0.00 0.00 0.00 0.00 0.00 0.00 0.00 0.00 0.00 0.00 0.00 0.00
0.00 0.00 0.00 0.00 0.00 0.00 0.00 0.00 0.00 0.00 0.00 0.00 0.00 0.00 0.00 0.00 0.00 0.00 0.00 0.00 0.00 0.00 0.00 0.00 0.00 0.00 0.00 0.00 0.00 0.00 0.00 0.00 0.00 0.00 0.00 0.00 0.00 0.00 0.00 0.00 0.00 0.00 0.00 0.00 0.00 0.00 0.00 0.00 0.00
0.00 0.00 0.00 0.00 0.00 0.00 0.00 0.00 0.00 0.00 0.00 0.00 0.00 0.00 0.00 0.00 0.00 0.00 0.00 0.00 0.00 0.00 0.00 0.00 0.00 0.00 0.00 0.00 0.00 0.00 0.00 0.00 0.00 0.00 0.00 0.00 0.00 0.00 0.00 0.00 0.00 0.00 0.00 0.00 0.00 0.00 0.00 0.00 0.00
0.00 0.00 0.00 0.00 0.00 0.00 0.00 0.00 0.00 0.00 0.00 0.00 0.00 0.00 0.00 0.00 0.00 0.00 0.00 0.00 0.00 0.00 0.00 0.00 0.00 0.00 0.00 0.00 0.00 0.00 0.00 0.00 0.00 0.00 0.00 0.00 0.00 0.00 0.00 0.00 0.00 0.00 0.00 0.00 0.00 0.00 0.00 0.00 0.00
0.00 0.00 0.00 0.00 0.00 0.00 0.00 0.00 0.00 0.00 0.00 0.00 0.00 0.00 0.00 0.00 0.00 0.00 0.00 0.00 0.00 0.00 0.00 0.00 0.00 0.00 0.00 0.00 0.00 0.00 0.00 0.00 0.00 0.00 0.00 0.00 0.00 0.00 0.00 0.00 0.00 0.00 0.00 0.00 0.00 0.00 0.00 0.00 0.00
0.00 0.00 0.00 0.00 0.00 0.00 0.00 0.00 0.00 0.00 0.00 0.00 0.00 0.00 0.00 0.00 0.00 0.00 0.00 0.00 0.00 0.00 0.00 0.00 0.00 0.00 0.00 0.00 0.00 0.00 0.00 0.00 0.00 0.00 0.00 0.00 0.00 0.00 0.00 0.00 0.00 0.00 0.00 0.00 0.00 0.00 0.00 0.00 0.00
0.00 0.00 0.00 0.00 0.00 0.00 0.00 0.00 0.00 0.00 0.00 0.00 0.00 0.00 0.00 0.00 0.00 0.00 0.00 0.00 0.00 0.00 0.00 0.00 0.00 0.00 0.00 0.00 0.00 0.00 0.00 0.00 0.00 0.00 0.00 0.00 0.00 0.00 0.00 0.00 0.00 0.00 0.00 0.00 0.00 0.00 0.00 0.00 0.00
0.00 0.00 0.00 0.00 0.00 0.00 0.00 0.00 0.00 0.00 0.00 0.00 0.00 0.00 0.00 0.00 0.00 0.00 0.00 0.00 0.00 0.00 0.00 0.00 0.00 0.00 0.00 0.00 0.00 0.00 0.00 0.00 0.00 0.00 0.00 0.00 0.00 0.00 0.00 0.00 0.00 0.00 0.00 0.00 0.00 0.00 0.00 0.00 0.00
0.00 0.00 0.00 0.00 0.00 0.00 0.00 0.00 0.00 0.00 0.00 0.00 0.00 0.00 0.00 0.00 0.00 0.00 0.00 0.00 0.00 0.00 0.00 0.00 0.00 0.00 0.00 0.00 0.00 0.00 0.00 0.00 0.00 0.00 0.00 0.00 0.00 0.00 0.00 0.00 0.00 0.00 0.00 0.00 0.00 0.00 0.00 0.00 0.00
0.00 0.00 0.00 0.00 0.00 0.00 0.00 0.00 0.00 0.00 0.00 0.00 0.00 0.00 0.00 0.00 0.00 0.00 0.00 0.00 0.00 0.00 0.00 0.00 0.00 0.00 0.00 0.00 0.00 0.00 0.00 0.00 0.00 0.00 0.00 0.00 0.00 0.00 0.00 0.00 0.00 0.00 0.00 0.00 0.00 0.00 0.00 0.00 0.00
0.00 0.00 0.00 0.00 0.00 0.00 0.00 0.00 0.00 0.00 0.00 0.00 0.00 0.00 0.00 0.00 0.00 0.00 0.00 0.00 0.00 0.00 0.00 0.00 0.00 0.00 0.00 0.00 0.00 0.00 0.00 0.00 0.00 0.00 0.00 0.00 0.00 0.00 0.00 0.00 0.00 0.00 0.00 0.00 0.00 0.00 0.00 0.00 0.00
MSLP
1009.33 1008.36 1008.39 1008.34 1008.92 1008.10 1007.08 1006.75 1006.39 1006.85 1007.09 1007.58 1007.74 1007.87 1009.86 1010.88 1011.72 1013.86 1014.40 1014.35 1014.78 1015.46 1016.06 1016.42 1016.63 1016.92 1017.05 1017.18 1017.52 1017.69 1017.66 1017.79 1017.86 1017.74 1017.75 1017.77 1017.79 1017.85 1017.78 1017.78 1017.72 1017.63 1017.53 1017.69 1017.84 1017.91 1017.99 1017.97 1018.00
1009.30 1008.38 1008.36 1008.28 1008.40 1007.50 1006.81 1006.53 1007.03 1007.44 1007.73 1007.73 1007.98 1008.32 1009.51 1011.73 1012.70 1013.80 1014.34 1014.44 1014.69 1015.53 1016.16 1016.51 1016.75 1017.08 1017.16 1017.56 1017.83 1017.95 1018.07 1018.05 1018.12 1018.11 1018.11 1018.07 1018.16 1018.20 1018.25 1018.23 1018.25 1018.12 1018.06 1018.39 1018.39 1018.50 1018.40 1018.52 1018.42
1009.40 1008.41 1008.69 1008.15 1007.70 1007.28 1006.70 1006.83 1007.31 1007.68 1007.78 1007.72 1008.29 1009.12 1010.38 1012.26 1012.78 1013.67 1013.95 1014.31 1014.78 1015.68 1016.20 1016.72 1016.95 1017.32 1017.60 1017.77 1018.01 1018.21 1018.40 1018.36 1018.45 1018.48 1018.57 1018.58 1018.54 1018.63 1018.84 1018.61 1018.77 1018.71 1018.70 1018.86 1018.89 1018.87 1018.88 1018.94 1018.93
1008.73 1008.56 1008.56 1008.20 1007.43 1007.17 1006.87 1007.05 1007.35 1007.69 1007.86 1008.01 1008.31 1010.39 1012.04 1013.03 1012.65 1013.51 1014.12 1014.25 1015.11 1015.89 1016.40 1016.90 1017.19 1017.62 1017.94 1018.05 1018.28 1018.45 1018.60 1018.66 1018.76 1018.86 1018.98 1019.03 1019.08 1019.30 1019.26 1019.17 1019.20 1019.27 1019.28 1019.45 1019.35 1019.35 1019.27 1019.38 1019.46
1008.73 1008.58 1008.53 1008.00 1007.61 1007.38 1007.43 1007.32 1007.27 1007.65 1007.98 1008.25 1008.84 1011.21 1012.59 1013.64 1013.67 1014.01 1014.29 1014.66 1015.31 1016.09 1016.51 1017.14 1017.37 1017.73 1018.05 1018.31 1018.44 1018.67 1018.79 1018.97 1019.15 1019.30 1019.38 1019.38 1019.53 1019.60 1019.69 1019.59 1019.74 1019.62 1019.73 1019.77 1019.69 1019.87 1019.80 1019.87 1019.83
1008.82 1008.73 1008.37 1008.01 1007.98 1007.85 1007.72 1007.52 1007.41 1007.72 1008.30 1008.75 1009.55 1010.92 1013.32 1013.95 1014.16 1014.46 1014.50 1014.84 1015.22 1015.99 1016.53 1017.18 1017.54 1017.83 1018.20 1018.49 1018.71 1018.88 1019.15 1019.32 1019.50 1019.72 1019.77 1019.81 1019.92 1019.89 1019.89 1020.03 1020.08 1020.20 1020.19 1020.21 1020.24 1020.20 1020.27 1020.47 1020.34
1008.87 1008.90 1008.38 1008.12 1008.40 1008.16 1008.23 1008.03 1007.94 1008.12 1008.78 1009.55 1009.70 1011.21 1013.37 1014.05 1014.35 1014.49 1014.61 1014.92 1015.09 1015.85 1016.58 1017.25 1017.78 1018.02 1018.35 1018.56 1018.85 1019.19 1019.39 1019.50 1019.78 1020.05 1020.24 1020.28 1020.30 1020.33 1020.30 1020.43 1020.51 1020.54 1020.66 1020.69 1020.60 1020.54 1020.67 1020.55 1020.46
1009.27 1009.03 1008.67 1008.73 1008.62 1008.82 1008.89 1008.71 1008.65 1009.00 1009.68 1009.82 1009.88 1011.62 1013.40 1014.10 1014.31 1014.51 1014.77 1015.10 1015.48 1015.97 1016.72 1017.21 1017.66 1018.15 1018.44 1018.83 1019.00 1019.34 1019.53 1019.75 1020.08 1020.39 1020.48 1020.54 1020.50 1020.57 1020.67 1020.77 1020.86 1020.81 1020.86 1020.91 1020.86 1020.92 1020.92 1020.96 1020.95
1009.39 1009.45 1009.27 1009.14 1008.93 1009.26 1009.11 1009.16 1009.37 1009.49 1010.06 1010.95 1011.61 1012.38 1013.48 1014.00 1014.32 1014.73 1015.11 1015.50 1015.88 1016.35 1016.69 1016.93 1017.63 1018.01 1018.45 1018.84 1019.09 1019.44 1019.62 1019.95 1020.21 1020.44 1020.47 1020.53 1020.53 1020.55 1020.87 1020.95 1021.07 1021.00 1021.06 1021.09 1021.05 1021.05 1021.10 1021.24 1021.18
1009.36 1009.27 1009.73 1009.63 1009.55 1009.64 1009.58 1009.62 1009.77 1010.02 1010.87 1011.86 1012.68 1013.27 1013.89 1014.27 1014.59 1014.99 1015.36 1015.71 1016.05 1016.54 1016.50 1016.97 1017.46 1018.07 1018.43 1018.75 1019.09 1019.47 1019.69 1019.98 1020.03 1020.22 1020.25 1020.42 1020.55 1020.59 1020.91 1020.98 1021.16 1021.24 1021.22 1021.21 1021.15 1021.16 1021.06 1021.04 1021.25
1009.41 1009.66 1010.07 1010.36 1010.44 1010.09 1010.08 1010.71 1011.31 1011.26 1011.95 1012.62 1012.90 1013.37 1013.91 1014.31 1014.53 1014.79 1015.10 1015.49 1015.96 1016.35 1016.51 1016.78 1017.18 1017.76 1018.11 1018.64 1019.19 1019.43 1019.69 1019.75 1019.76 1019.84 1020.08 1020.18 1020.43 1020.60 1020.79 1021.13 1021.18 1021.39 1021.12 1021.29 1021.09 1021.08 1021.10 1021.02 1020.79
1010.01 1010.17 1010.28 1010.70 1011.18 1010.96 1010.88 1011.26 1012.45 1012.75 1013.09 1012.89 1012.87 1013.02 1013.52 1014.08 1014.21 1014.30 1014.58 1015.07 1015.55 1016.11 1016.53 1016.77 1016.93 1017.47 1017.97 1018.31 1018.80 1019.20 1019.54 1019.63 1019.76 1019.82 1020.10 1020.47 1020.67 1020.64 1020.71 1020.90 1020.95 1021.03 1021.10 1021.05 1020.97 1020.98 1020.86 1020.75 1020.63
1010.01 1010.47 1010.75 1010.95 1011.23 1011.40 1011.60 1012.08 1013.06 1013.54 1013.31 1013.27 1013.12 1013.28 1013.50 1013.56 1013.57 1013.74 1013.88 1014.34 1015.07 1015.84 1016.39 1016.82 1017.06 1017.46 1017.72 1018.11 1018.45 1018.92 1019.11 1019.31 1019.45 1019.72 1020.02 1020.37 1020.63 1020.81 1020.74 1020.75 1020.83 1020.96 1020.99 1021.09 1021.14 1021.04 1020.96 1020.81 1020.57
1010.57 1010.76 1010.91 1011.12 1011.43 1011.68 1012.09 1012.98 1013.19 1014.06 1013.69 1013.75 1013.88 1014.28 1014.33 1014.24 1014.09 1013.82 1014.00 1014.43 1014.85 1015.40 1016.07 1016.60 1017.13 1017.44 1017.62 1017.99 1018.30 1018.59 1018.79 1019.09 1019.37 1019.60 1019.91 1020.13 1020.49 1020.75 1020.77 1020.72 1020.75 1020.91 1020.92 1021.02 1021.05 1021.11 1021.06 1020.97 1020.66
1010.86 1010.99 1011.06 1011.24 1011.52 1011.98 1012.61 1013.97 1014.71 1014.54 1014.26 1014.53 1014.81 1015.06 1015.24 1015.31 1015.02 1015.06 1015.11 1014.86 1014.73 1015.08 1015.55 1016.27 1016.89 1017.31 1017.74 1017.97 1018.29 1018.63 1018.88 1019.06 1019.41 1019.60 1019.73 1019.92 1020.13 1020.40 1020.52 1020.66 1020.84 1020.80 1020.83 1020.93 1021.01 1020.98 1020.95 1020.99 1020.73
1011.18 1011.14 1011.23 1011.53 1011.78 1012.42 1012.97 1014.68 1015.29 1015.12 1015.09 1015.38 1015.69 1015.91 1016.00 1016.24 1016.20 1016.14 1015.75 1015.50 1015.08 1014.80 1015.29 1015.86 1016.61 1017.23 1017.84 1018.02 1018.35 1018.68 1019.00 1019.21 1019.47 1019.55 1019.68 1019.78 1019.97 1020.21 1020.51 1020.70 1020.77 1020.65 1020.82 1021.04 1021.18 1021.11 1021.16 1021.11 1020.96
1011.08 1010.85 1011.08 1011.81 1011.99 1012.52 1013.31 1015.07 1015.86 1015.86 1015.96 1016.42 1016.69 1017.00 1016.94 1017.09 1017.10 1017.01 1016.62 1016.28 1015.78 1015.20 1015.05 1015.57 1016.32 1017.07 1017.68 1017.98 1018.29 1018.65 1018.85 1019.18 1019.46 1019.48 1019.60 1019.69 1019.91 1020.15 1020.48 1020.67 1020.69 1020.54 1020.80 1021.08 1021.18 1021.22 1021.15 1021.18 1021.01
1010.70 1010.69 1010.82 1011.70 1012.47 1012.78 1014.11 1015.62 1016.40 1016.79 1016.99 1017.48 1017.74 1018.00 1018.04 1017.97 1018.01 1017.72 1017.24 1016.72 1016.13 1015.59 1015.28 1015.21 1016.11 1016.92 1017.46 1017.84 1018.16 1018.52 1018.82 1019.03 1019.19 1019.36 1019.46 1019.55 1019.82 1020.06 1020.36 1020.54 1020.59 1020.57 1020.79 1021.08 1021.19 1021.25 1021.17 1021.07 1021.04
1010.92 1010.84 1011.26 1012.14 1012.84 1013.34 1014.47 1015.87 1016.90 1017.49 1017.90 1018.30 1018.70 1018.93 1019.06 1018.88 1018.75 1018.50 1017.93 1017.17 1016.31 1015.56 1015.61 1015.47 1016.09 1016.78 1017.39 1017.93 1018.42 1018.70 1019.05 1019.02 1019.19 1019.20 1019.23 1019.42 1019.64 1019.85 1020.22 1020.49 1020.55 1020.53 1020.79 1020.95 1021.03 1021.10 1021.19 1021.23 1020.89
1011.49 1011.46 1011.81 1012.64 1013.26 1013.99 1014.98 1016.31 1017.29 1018.02 1018.69 1019.11 1019.56 1019.80 1019.94 1019.81 1019.67 1019.39 1018.94 1018.13 1017.20 1016.51 1015.97 1016.00 1016.29 1016.79 1017.33 1017.81 1018.16 1018.39 1018.66 1018.76 1018.81 1018.90 1019.07 1019.23 1019.40 1019.56 1019.85 1020.14 1020.35 1020.37 1020.66 1020.75 1020.81 1020.95 1021.33 1021.30 1020.82
1011.88 1012.03 1012.38 1012.78 1013.61 1014.12 1014.96 1016.41 1017.49 1018.37 1019.01 1019.59 1020.08 1020.46 1020.60 1020.66 1020.56 1020.34 1019.97 1019.48 1018.77 1018.04 1017.51 1017.11 1016.97 1017.09 1017.51 1017.91 1018.22 1018.47 1018.80 1019.03 1019.22 1019.19 1019.18 1019.10 1019.14 1019.31 1019.53 1019.79 1020.04 1020.15 1020.25 1020.52 1020.62 1020.68 1021.00 1021.36 1021.06
1012.54 1012.86 1012.98 1013.35 1014.02 1014.20 1014.81 1016.32 1017.35 1018.38 1019.35 1020.17 1020.89 1021.13 1021.44 1021.38 1021.33 1021.15 1020.94 1020.68 1020.23 1019.75 1019.03 1018.53 1018.30 1018.33 1018.38 1018.37 1018.77 1019.02 1019.50 1019.73 1019.51 1019.28 1019.25 1019.21 1019.05 1019.19 1019.31 1019.50 1019.73 1019.91 1020.05 1020.23 1020.24 1020.32 1020.55 1020.90 1021.22
1013.32 1013.33 1013.47 1013.77 1014.25 1014.67 1015.09 1016.26 1017.19 1018.16 1019.59 1020.61 1021.36 1021.66 1021.99 1022.04 1022.06 1022.00 1021.82 1021.68 1021.35 1020.97 1020.66 1020.22 1019.92 1019.71 1019.58 1019.46 1019.56 1019.71 1019.97 1019.88 1019.60 1019.50 1019.47 1019.46 1019.24 1019.08 1019.17 1019.28 1019.40 1019.61 1019.75 1019.85 1020.00 1020.05 1020.31 1020.49 1020.87
1013.80 1013.95 1014.08 1014.31 1014.75 1014.93 1014.57 1015.72 1017.53 1018.08 1019.00 1020.61 1021.57 1022.02 1022.36 1022.54 1022.69 1022.64 1022.64 1022.44 1022.21 1021.91 1021.65 1021.41 1021.32 1021.25 1021.00 1020.78 1020.63 1020.57 1020.65 1020.60 1020.51 1020.45 1020.37 1020.11 1019.76 1019.43 1019.23 1019.17 1019.28 1019.37 1019.51 1019.67 1019.72 1019.84 1020.02 1020.22 1020.31
1014.14 1014.19 1014.44 1015.16 1015.25 1014.91 1014.66 1015.89 1017.72 1018.54 1019.34 1020.48 1021.63 1022.35 1022.77 1023.00 1023.24 1023.27 1023.18 1023.20 1023.18 1022.85 1022.59 1022.32 1022.24 1022.19 1021.98 1021.86 1021.64 1021.44 1021.33 1021.26 1021.40 1021.31 1021.18 1020.94 1020.62 1020.34 1020.13 1019.87 1019.73 1019.54 1019.37 1019.29 1019.32 1019.62 1019.72 1019.84 1020.03
1014.11 1014.52 1014.80 1014.82 1014.97 1015.43 1015.74 1016.84 1018.49 1019.34 1020.18 1020.94 1021.84 1022.57 1022.98 1023.35 1023.63 1023.72 1023.71 1023.77 1023.67 1023.55 1023.40 1023.23 1023.09 1022.97 1022.68 1022.53 1022.41 1022.23 1022.06 1021.93 1021.84 1021.76 1021.65 1021.48 1021.28 1021.01 1020.67 1020.36 1019.99 1019.69 1019.43 1019.28 1019.21 1019.34 1019.44 1019.57 1019.65
1014.60 1014.72 1015.14 1015.39 1015.13 1015.54 1016.13 1018.21 1019.12 1020.02 1020.97 1021.49 1022.17 1022.85 1023.38 1023.66 1023.88 1024.05 1024.11 1024.16 1024.19 1024.14 1024.05 1023.94 1023.87 1023.73 1023.41 1023.18 1023.02 1022.88 1022.68 1022.53 1022.43 1022.28 1022.12 1021.94 1021.68 1021.30 1021.05 1020.71 1020.42 1020.04 1019.69 1019.42 1019.25 1019.35 1019.34 1019.34 1019.35
1015.21 1015.59 1015.51 1015.84 1016.35 1016.45 1016.06 1017.76 1019.14 1020.06 1021.01 1021.84 1022.39 1023.09 1023.58 1023.85 1024.04 1024.22 1024.36 1024.55 1024.59 1024.63 1024.69 1024.56 1024.43 1024.43 1024.27 1023.89 1023.61 1023.49 1023.35 1023.15 1022.99 1022.80 1022.58 1022.34 1022.04 1021.66 1021.48 1021.19 1020.77 1020.48 1020.13 1019.80 1019.55 1019.44 1019.31 1019.23 1019.11
1015.83 1015.83 1016.24 1016.52 1016.79 1017.16 1017.72 1019.16 1019.23 1019.90 1020.64 1021.66 1022.46 1023.20 1023.65 1023.99 1024.30 1024.47 1024.56 1024.75 1024.89 1025.13 1025.21 1025.25 1025.14 1025.14 1024.98 1024.69 1024.33 1024.08 1023.91 1023.75 1023.58 1023.39 1023.13 1022.81 1022.43 1022.08 1021.83 1021.57 1021.28 1020.99 1020.72 1020.32 1020.04 1019.81 1019.58 1019.41 1019.14
1016.95 1017.12 1017.25 1017.83 1017.99 1018.00 1018.59 1019.76 1019.80 1019.66 1020.31 1021.31 1022.46 1023.26 1023.86 1024.19 1024.38 1024.60 1024.86 1025.15 1025.36 1025.52 1025.63 1025.73 1025.73 1025.68 1025.57 1025.31 1025.04 1024.81 1024.66 1024.48 1024.30 1024.10 1023.76 1023.23 1022.95 1022.48 1022.13 1021.82 1021.64 1021.39 1021.12 1020.84 1020.57 1020.53 1020.30 1020.01 1019.67
Thickness
5782 5790 5791 5779 5744 5747 5744 5755 5778 5765 5766 5775 5779 5774 5752 5752 5745 5722 5749 5753 5751 5746 5741 5740 5739 5737 5737 5736 5735 5734 5734 5733 5732 5734 5734 5734 5734 5734 5734 5733 5734 5734 5734 5733 5731 5730 5730 5731 5729
5778 5786 5780 5762 5734 5728 5741 5767 5752 5759 5766 5778 5774 5773 5761 5738 5749 5743 5742 5750 5749 5743 5739 5737 5736 5734 5733 5731 5730 5730 5729 5729 5728 5729 5730 5730 5729 5729 5728 5729 5728 5729 5729 5727 5726 5725 5727 5725 5726
5774 5783 5754 5745 5737 5729 5736 5757 5756 5761 5770 5770 5764 5767 5757 5739 5750 5745 5750 5750 5747 5740 5736 5733 5731 5729 5728 5727 5725 5725 5724 5725 5726 5725 5723 5725 5725 5724 5721 5724 5721 5723 5723 5722 5722 5721 5722 5721 5722
5768 5763 5757 5730 5736 5747 5751 5755 5761 5757 5764 5770 5769 5739 5743 5746 5752 5748 5747 5746 5741 5735 5732 5728 5726 5724 5722 5722 5721 5720 5719 5720 5720 5720 5719 5719 5720 5718 5718 5719 5717 5716 5717 5715 5717 5717 5718 5717 5718
5763 5751 5726 5726 5733 5747 5752 5760 5763 5751 5755 5757 5759 5729 5727 5736 5743 5742 5741 5741 5737 5731 5728 5723 5722 5720 5719 5717 5717 5716 5715 5715 5714 5714 5714 5715 5714 5714 5713 5714 5712 5713 5711 5712 5713 5712 5713 5713 5715
5739 5745 5720 5720 5730 5743 5748 5759 5760 5753 5751 5751 5745 5735 5720 5734 5734 5735 5737 5735 5733 5729 5725 5720 5717 5716 5714 5713 5712 5711 5710 5709 5708 5708 5709 5709 5709 5710 5710 5708 5709 5707 5708 5708 5709 5710 5709 5708 5711
5737 5728 5723 5726 5724 5730 5738 5754 5747 5745 5743 5737 5751 5728 5723 5727 5732 5734 5734 5734 5732 5727 5722 5717 5714 5712 5710 5709 5708 5706 5705 5705 5703 5702 5702 5703 5704 5704 5705 5703 5703 5704 5703 5704 5705 5706 5705 5708 5710
5740 5734 5730 5727 5721 5717 5738 5744 5749 5742 5732 5753 5753 5725 5713 5724 5732 5732 5731 5729 5727 5724 5719 5715 5712 5709 5707 5705 5704 5702 5701 5700 5699 5697 5698 5698 5699 5699 5699 5699 5699 5700 5701 5701 5702 5702 5703 5704 5705
5751 5718 5710 5720 5721 5723 5742 5734 5745 5752 5738 5735 5736 5730 5727 5729 5729 5725 5722 5721 5719 5717 5716 5714 5710 5707 5705 5703 5701 5699 5698 5697 5695 5695 5695 5696 5697 5697 5695 5695 5696 5697 5697 5698 5699 5700 5702 5702 5703
5735 5717 5715 5732 5732 5727 5736 5735 5739 5736 5728 5723 5720 5725 5725 5723 5720 5715 5712 5710 5710 5709 5712 5711 5708 5704 5702 5700 5699 5697 5695 5694 5695 5694 5695 5694 5694 5695 5693 5694 5693 5693 5694 5695 5696 5698 5701 5703 5704
5738 5717 5729 5727 5727 5734 5734 5725 5725 5720 5709 5714 5713 5716 5718 5717 5715 5713 5712 5710 5707 5707 5707 5709 5706 5702 5701 5699 5697 5694 5693 5693 5693 5693 5692 5692 5691 5692 5692 5691 5691 5690 5693 5693 5696 5698 5700 5702 5706
5724 5732 5732 5728 5724 5725 5722 5727 5708 5708 5708 5720 5723 5724 5720 5715 5714 5713 5711 5709 5706 5704 5703 5704 5703 5701 5699 5698 5696 5693 5691 5691 5691 5691 5689 5688 5688 5688 5689 5688 5688 5689 5690 5692 5694 5696 5698 5702 5705
5728 5729 5731 5729 5727 5725 5727 5716 5706 5703 5716 5720 5722 5720 5719 5718 5718 5718 5717 5714 5708 5701 5700 5699 5700 5698 5698 5696 5695 5692 5692 5691 5690 5689 5687 5685 5685 5684 5685 5685 5686 5686 5687 5688 5690 5693 5696 5700 5704
5732 5730 5728 5728 5724 5724 5715 5707 5711 5703 5715 5713 5712 5706 5708 5708 5709 5715 5713 5709 5705 5703 5699 5698 5697 5695 5694 5694 5693 5692 5691 5690 5688 5688 5686 5684 5683 5682 5682 5682 5683 5683 5684 5685 5687 5690 5693 5696 5701
5732 5719 5723 5723 5723 5718 5716 5692 5688 5704 5710 5704 5703 5700 5700 5699 5702 5698 5699 5702 5704 5702 5700 5697 5695 5693 5691 5690 5690 5689 5687 5687 5686 5685 5685 5684 5683 5682 5681 5680 5680 5681 5681 5682 5685 5687 5690 5693 5697
5718 5719 5699 5718 5720 5716 5713 5673 5689 5702 5699 5695 5694 5692 5692 5690 5690 5690 5693 5695 5700 5704 5701 5698 5695 5691 5688 5687 5686 5685 5683 5683 5682 5682 5682 5682 5682 5680 5679 5677 5677 5678 5678 5678 5680 5683 5686 5689 5693
5713 5699 5704 5702 5721 5715 5705 5675 5686 5695 5691 5686 5684 5682 5683 5681 5682 5682 5685 5687 5692 5698 5701 5698 5694 5689 5685 5683 5683 5681 5681 5680 5679 5680 5680 5680 5679 5677 5676 5675 5675 5676 5676 5675 5676 5679 5682 5684 5688
5705 5704 5716 5697 5707 5711 5688 5676 5680 5683 5681 5675 5673 5672 5672 5672 5672 5675 5679 5683 5688 5692 5696 5699 5692 5687 5684 5680 5679 5678 5677 5677 5676 5677 5677 5677 5676 5675 5673 5673 5672 5672 5672 5671 5671 5673 5677 5681 5684
5713 5710 5705 5697 5704 5701 5685 5675 5672 5673 5670 5666 5663 5661 5661 5663 5665 5667 5671 5678 5684 5690 5690 5692 5688 5684 5680 5675 5672 5671 5670 5671 5672 5673 5673 5672 5672 5672 5670 5669 5669 5669 5668 5667 5668 5669 5671 5674 5680
5707 5702 5697 5695 5698 5690 5679 5667 5668 5665 5660 5657 5654 5651 5651 5652 5653 5655 5659 5665 5673 5678 5685 5684 5683 5680 5677 5673 5671 5670 5669 5669 5669 5669 5668 5667 5667 5667 5666 5666 5665 5665 5664 5664 5664 5664 5663 5666 5674
5700 5693 5689 5690 5688 5688 5678 5659 5656 5659 5656 5653 5649 5646 5644 5642 5642 5643 5645 5649 5654 5660 5665 5670 5672 5673 5671 5669 5667 5665 5663 5661 5659 5660 5661 5662 5663 5662 5661 5661 5661 5661 5661 5659 5660 5660 5659 5657 5663
5683 5691 5690 5687 5673 5658 5679 5642 5650 5651 5643 5640 5633 5632 5630 5631 5633 5633 5633 5634 5637 5640 5647 5652 5655 5657 5658 5658 5656 5654 5650 5647 5652 5654 5655 5655 5656 5657 5657 5657 5657 5657 5657 5656 5657 5657 5656 5655 5653
5677 5688 5684 5680 5668 5661 5662 5645 5638 5646 5636 5626 5623 5622 5620 5620 5620 5620 5621 5621 5623 5625 5627 5630 5633 5636 5638 5641 5640 5640 5640 5641 5644 5646 5646 5647 5648 5649 5650 5651 5652 5652 5652 5652 5653 5653 5652 5652 5650
5681 5674 5671 5669 5656 5635 5662 5653 5630 5640 5636 5622 5617 5613 5612 5609 5608 5608 5608 5609 5609 5611 5612 5613 5614 5615 5618 5620 5622 5624 5624 5626 5627 5628 5630 5632 5636 5640 5641 5643 5644 5645 5645 5646 5647 5648 5648 5647 5648
5669 5659 5637 5629 5627 5633 5665 5649 5626 5633 5630 5621 5609 5604 5602 5599 5597 5596 5596 5595 5595 5596 5598 5601 5600 5600 5601 5602 5605 5606 5608 5609 5609 5611 5612 5615 5618 5622 5625 5629 5631 5634 5637 5639 5640 5641 5642 5642 5642
5661 5655 5633 5624 5628 5633 5653 5630 5613 5620 5614 5609 5603 5597 5593 5589 5586 5585 5585 5584 5584 5584 5584 5585 5586 5587 5588 5588 5589 5591 5592 5593 5595 5596 5597 5599 5601 5604 5609 5613 5617 5621 5625 5628 5631 5633 5634 5635 5636
5652 5638 5650 5631 5643 5627 5629 5609 5610 5607 5600 5598 5593 5587 5582 5579 5576 5574 5573 5573 5572 5571 5572 5572 5572 5572 5574 5575 5576 5576 5578 5578 5579 5581 5583 5584 5587 5590 5593 5598 5602 5607 5611 5616 5619 5622 5624 5627 5628
5643 5644 5625 5621 5607 5611 5629 5607 5595 5593 5590 5589 5583 5577 5574 5571 5569 5566 5564 5562 5560 5560 5559 5558 5559 5558 5557 5560 5562 5563 5563 5565 5566 5567 5568 5570 5573 5576 5579 5582 5587 5591 5595 5600 5605 5609 5613 5616 5618
5629 5626 5625 5621 5615 5599 5595 5583 5600 5591 5587 5579 5575 5570 5564 5561 5558 5556 5555 5552 5550 5547 5545 5544 5544 5543 5543 5544 5547 5548 5549 5550 5551 5552 5553 5556 5559 5562 5565 5568 5571 5575 5578 5583 5588 5592 5598 5601 5606
5622 5613 5612 5592 5594 5597 5592 5575 5587 5592 5585 5578 5568 5559 5553 5551 5548 5545 5543 5540 5536 5534 5532 5530 5529 5528 5528 5529 5531 5532 5533 5533 5534 5535 5537 5540 5544 5547 5550 5553 5556 5560 5563 5567 5571 5573 5577 5582 5587